Location: Sumpter
(44.7457°N, 118.2022°W)
Time: 06:02:07
(UTC-08:00)

N. Korean satellite - Visible Passes

Search period start: 20 November 2019 00:00
Search period end: 30 November 2019 00:00
Orbit: 456 x 506 km, 97.2° (Epoch: 20 November)

Date Brightness Start Highest point End Pass type
(mag) Time Alt. Az. Time Alt. Az. Time Alt. Az.
20 Nov 7.4 05:35:30 10° NNE 05:39:09 55° E 05:42:43 10° S visible
20 Nov 9.5 17:46:30 10° SW 17:49:19 21° W 17:52:12 10° NW visible
21 Nov 8.9 05:10:28 10° NE 05:13:39 27° E 05:16:47 10° SSE visible
21 Nov 8.1 17:20:20 10° S 17:23:48 41° W 17:27:20 10° NNW visible
22 Nov 10.0 04:46:04 10° ENE 04:48:04 14° E 04:50:02 10° ESE visible
22 Nov 7.0 06:18:11 10° N 06:21:41 41° WNW 06:25:06 10° SW visible
22 Nov 6.7 16:54:42 10° SSE 16:58:22 89° WSW 17:02:06 10° NNW visible
23 Nov 6.5 05:52:38 10° NNE 05:56:21 87° WNW 05:59:58 10° SSW visible
23 Nov 10.0 18:04:45 10° WSW 18:06:39 14° W 18:08:35 10° WNW visible
24 Nov 7.9 05:27:23 10° NNE 05:30:55 43° E 05:34:22 10° S visible
24 Nov 9.1 17:37:56 10° SSW 17:41:04 26° W 17:44:14 10° NW visible
25 Nov 9.3 05:02:29 10° NE 05:05:23 22° E 05:08:13 10° SE visible
25 Nov 7.6 17:11:58 10° S 17:15:34 53° W 17:19:13 10° NNW visible
26 Nov 10.2 04:38:39 10° ENE 04:39:45 11° E 04:40:52 10° ESE visible
26 Nov 6.7 06:09:54 10° N 06:13:29 52° WNW 06:16:59 10° SSW visible
26 Nov 6.6 16:46:29 10° SSE 16:50:09 73° ENE 16:53:52 10° N visible
27 Nov 6.8 05:44:27 10° NNE 05:48:06 74° ESE 05:51:41 10° S visible
27 Nov 9.8 17:55:54 10° SW 17:58:20 17° W 18:00:49 10° NW visible
28 Nov 8.4 05:19:16 10° NNE 05:22:38 34° E 05:25:55 10° SSE visible
28 Nov 8.6 17:29:26 10° SSW 17:32:46 32° W 17:36:09 10° NNW visible
29 Nov 9.6 04:54:34 10° NE 04:57:03 17° E 04:59:31 10° SE visible
29 Nov 7.3 06:27:16 10° N 06:30:33 31° WNW 06:33:44 10° SW visible
29 Nov 7.1 17:03:37 10° S 17:07:17 68° WSW 17:11:01 10° NNW visible
